This demonstration page uses our WeatherBlox Daily Observations layout. Learn more.

38.89511, -77.03637

Hourly Observations for December 19, 2016

Temp ( °F °C ) Dew Point ( °F °C ) Humidity (%) Winds ( mph kmh ) Pressure ( in mb ) Visibility ( mi km ) Precip ( " mm )
12:52 am 00:52 Cloudy 35 1.7 19 -7.2 52 52 NNW 16 26 30.53 1034 10 16.0934 0 0
1:52 am 01:52 Cloudy 35 1.7 19 -7.2 52 52 NNW 16 26 30.56 1035 10 16.0934 0 0
2:52 am 02:52 Cloudy 34 1.1 19 -7.2 54 54 NNW 9 15 30.61 1037 10 16.0934 0 0
3:52 am 03:52 Cloudy 33 0.6 20 -6.7 58 58 NNW 10 17 30.63 1037 10 16.0934 0 0
4:52 am 04:52 Cloudy 32 0 19 -7.2 59 59 NNW 10 17 30.65 1038 10 16.0934 0 0
5:52 am 05:52 Cloudy 32 0 19 -7.2 59 59 N 9 15 30.67 1039 10 16.0934 0 0
6:52 am 06:52 Mostly Cloudy 32 0 18 -7.8 56 56 N 12 19 30.69 1039 10 16.0934 0 0
7:52 am 07:52 Mostly Cloudy 31 -0.6 17 -8.3 56 56 N 14 22 30.72 1040 10 16.0934 0 0
8:52 am 08:52 Mostly Cloudy 32 0 17 -8.3 54 54 NNE 15 24 30.73 1041 10 16.0934 0 0
9:52 am 09:52 Partly Cloudy 32 0 17 -8.3 54 54 N 14 22 30.74 1041 10 16.0934 0 0
10:52 am 10:52 Partly Cloudy 35 1.7 18 -7.8 50 50 NNE 8 13 30.73 1041 10 16.0934 0 0
11:52 am 11:52 Partly Cloudy 37 2.8 18 -7.8 46 46 NNW 7 11 30.71 1040 10 16.0934 0 0
12:52 pm 12:52 Partly Cloudy 37 2.8 16 -8.9 42 42 VRB 6 9 30.69 1039 10 16.0934 0 0
1:52 pm 13:52 Mostly Cloudy 37 2.8 17 -8.3 44 44 NNE 5 7 30.67 1039 10 16.0934 0 0
2:52 pm 14:52 Mostly Cloudy 37 2.8 16 -8.9 42 42 N 6 9 30.66 1038 10 16.0934 0 0
3:52 pm 15:52 Mostly Cloudy 36 2.2 18 -7.8 48 48 NNE 6 9 30.66 1038 10 16.0934 0 0
4:52 pm 16:52 Mostly Cloudy 34 1.1 18 -7.8 52 52 N 7 11 30.66 1038 10 16.0934 0 0
5:52 pm 17:52 Mostly Cloudy 34 1.1 18 -7.8 52 52 NNE 9 15 30.67 1039 10 16.0934 0 0
6:52 pm 18:52 Mostly Cloudy 34 1.1 19 -7.2 54 54 NE 10 17 30.68 1039 10 16.0934 0 0
7:52 pm 19:52 Mostly Cloudy 32 0 18 -7.8 56 56 E 8 13 30.68 1039 10 16.0934 0 0
8:52 pm 20:52 Mostly Cloudy 31 -0.6 17 -8.3 56 56 ENE 9 15 30.69 1039 10 16.0934 0 0
9:52 pm 21:52 Mostly Cloudy 31 -0.6 17 -8.3 56 56 ENE 8 13 30.68 1039 10 16.0934 0 0
10:52 pm 22:52 Cloudy 31 -0.6 17 -8.3 56 56 ENE 9 15 30.68 1039 10 16.0934 0 0
11:52 pm 23:52 Cloudy 31 -0.6 17 -8.3 56 56 ENE 7 11 30.68 1039 10 16.0934 0 0

Powered by AerisWeather